ヘリン-ローマン-アルー第1彗星

117P/Helin-Roman-Alu 1 (2005)

English version
Home page
Total 6,336 html files since Dec. 4, 1995
Updated on April 4, 2008

---------------------------------------------------------------------

・ プロフィール

・ 写真集

・ 軌道要素

Epoch 2005 Dec. 16.0 TT = JDT 2453720.5
T 2005 Dec. 19.9071 TT                                  MPCN
q   3.036972             (2000.0)            P               Q
n   0.1196072      Peri.  222.6710      +0.1945786      +0.9722749
a   4.079727       Node    58.9404      -0.8541888      +0.2329553
e   0.255594       Incl.    8.7081      -0.4821832      -0.0203323
P   8.24
From 191 observations 1988-1999, mean residual 0".7.

・ 星図

・ 光度変化

        m1 = 3.0 + 5 logΔ + 18.0 log r(t - 140)

---------------------------------------------------------------------

軌道要素はMPCのEphemerides and Orbital Elementsに掲載されたものです。
星図は StellaNavigator Ver.2.0 for Windows (アストロアーツ 編著 / アスキー出版局刊) で作成したものです。
光度グラフはComet for Windowsで作成したものです。

---------------------------------------------------------------------

Copyright(C) 1995-2008 Seiichi Yoshida (comet@aerith.net). All rights reserved.